TimeAKDT,TemperatureF,Dew PointF,Humidity,Sea Level PressureIn,VisibilityMPH,Wind Direction,Wind SpeedMPH,Gust SpeedMPH,PrecipitationIn,Events,Conditions,WindDirDegrees,DateUTC
12:16 AM,17.6,15.8,93,30.42,10.0,NNE,5.8,-,N/A,,Clear,20,2012-10-25 08:16:00
12:36 AM,19.4,17.6,93,30.42,10.0,NNE,3.5,-,N/A,,Clear,20,2012-10-25 08:36:00
12:56 AM,17.6,15.8,93,30.42,10.0,NNE,4.6,-,N/A,,Clear,30,2012-10-25 08:56:00
1:16 AM,17.6,14.0,86,30.43,10.0,NNE,3.5,-,N/A,,Clear,20,2012-10-25 09:16:00
1:36 AM,15.8,12.2,86,30.43,10.0,NNE,6.9,-,N/A,,Clear,30,2012-10-25 09:36:00
1:56 AM,14.0,12.2,93,30.43,10.0,North,8.1,-,N/A,,Clear,10,2012-10-25 09:56:00
2:16 AM,14.0,10.4,86,30.43,10.0,North,10.4,-,N/A,,Clear,360,2012-10-25 10:16:00
2:36 AM,15.8,10.4,79,30.43,10.0,North,10.4,-,N/A,,Clear,350,2012-10-25 10:36:00
2:56 AM,15.8,12.2,86,30.43,10.0,North,10.4,-,N/A,,Clear,360,2012-10-25 10:56:00
3:16 AM,17.6,14.0,86,30.44,10.0,North,11.5,-,N/A,,Clear,10,2012-10-25 11:16:00
3:36 AM,17.6,12.2,79,30.44,10.0,North,9.2,-,N/A,,Clear,360,2012-10-25 11:36:00
3:56 AM,17.6,14.0,86,30.43,10.0,North,10.4,-,N/A,,Clear,10,2012-10-25 11:56:00
4:16 AM,15.8,12.2,86,30.43,10.0,North,9.2,-,N/A,,Clear,10,2012-10-25 12:16:00
4:36 AM,15.8,12.2,86,30.42,10.0,North,9.2,-,N/A,,Clear,10,2012-10-25 12:36:00
4:56 AM,17.6,12.2,79,30.43,10.0,North,9.2,-,N/A,,Clear,10,2012-10-25 12:56:00
5:16 AM,15.8,10.4,79,30.43,10.0,NNE,8.1,-,N/A,,Clear,30,2012-10-25 13:16:00
5:36 AM,14.0,10.4,86,30.44,10.0,North,9.2,-,N/A,,Clear,10,2012-10-25 13:36:00
5:56 AM,14.0,10.4,86,30.44,10.0,North,9.2,-,N/A,,Clear,10,2012-10-25 13:56:00
6:16 AM,12.2,10.4,92,30.44,10.0,North,9.2,-,N/A,,Clear,350,2012-10-25 14:16:00
6:36 AM,14.0,12.2,93,30.44,10.0,North,12.7,-,N/A,,Clear,350,2012-10-25 14:36:00
6:56 AM,17.6,14.0,86,30.44,10.0,North,11.5,-,N/A,,Clear,360,2012-10-25 14:56:00
7:16 AM,17.6,12.2,79,30.45,10.0,North,10.4,-,N/A,,Clear,360,2012-10-25 15:16:00
7:36 AM,17.6,14.0,86,30.45,10.0,North,11.5,-,N/A,,Clear,360,2012-10-25 15:36:00
7:56 AM,17.6,12.2,79,30.45,10.0,North,10.4,-,N/A,,Clear,360,2012-10-25 15:56:00
8:16 AM,17.6,12.2,79,30.46,10.0,North,8.1,-,N/A,,Clear,360,2012-10-25 16:16:00
8:36 AM,17.6,12.2,79,30.47,10.0,North,10.4,-,N/A,,Clear,10,2012-10-25 16:36:00
8:56 AM,15.8,12.2,86,30.46,10.0,North,9.2,-,N/A,,Clear,360,2012-10-25 16:56:00
9:16 AM,15.8,12.2,86,30.46,10.0,North,10.4,-,N/A,,Clear,10,2012-10-25 17:16:00
9:36 AM,17.6,12.2,79,30.47,10.0,North,12.7,-,N/A,,Clear,10,2012-10-25 17:36:00
9:56 AM,17.6,10.4,73,30.47,10.0,North,11.5,-,N/A,,Clear,10,2012-10-25 17:56:00
10:16 AM,17.6,12.2,79,30.47,10.0,North,11.5,-,N/A,,Clear,10,2012-10-25 18:16:00
10:36 AM,17.6,10.4,73,30.48,10.0,North,10.4,-,N/A,,Clear,10,2012-10-25 18:36:00
10:56 AM,19.4,14.0,80,30.48,10.0,North,10.4,-,N/A,,Clear,10,2012-10-25 18:56:00
11:16 AM,19.4,14.0,80,30.48,10.0,North,12.7,-,N/A,,Clear,10,2012-10-25 19:16:00
11:36 AM,21.2,17.6,86,30.48,10.0,North,12.7,-,N/A,,Clear,10,2012-10-25 19:36:00
11:56 AM,23.0,15.8,74,30.48,10.0,North,10.4,-,N/A,,Clear,360,2012-10-25 19:56:00
12:16 PM,24.8,17.6,74,30.48,10.0,North,12.7,-,N/A,,Clear,10,2012-10-25 20:16:00
12:36 PM,26.6,17.6,69,30.48,10.0,North,12.7,-,N/A,,Clear,10,2012-10-25 20:36:00
12:56 PM,28.4,19.4,69,30.48,10.0,North,13.8,-,N/A,,Clear,10,2012-10-25 20:56:00
1:16 PM,30.2,19.4,64,30.48,10.0,North,15.0,-,N/A,,Clear,10,2012-10-25 21:16:00
1:36 PM,30.2,19.4,64,30.48,10.0,North,12.7,-,N/A,,Clear,10,2012-10-25 21:36:00
1:56 PM,33.8,21.2,60,30.48,10.0,North,13.8,-,N/A,,Clear,10,2012-10-25 21:56:00
2:16 PM,35.6,21.2,56,30.48,10.0,NNE,16.1,-,N/A,,Clear,30,2012-10-25 22:16:00
2:36 PM,35.6,21.2,56,30.47,10.0,NNE,16.1,-,N/A,,Clear,20,2012-10-25 22:36:00
2:56 PM,37.4,21.2,52,30.48,10.0,NNE,13.8,-,N/A,,Clear,30,2012-10-25 22:56:00
3:16 PM,37.4,21.2,52,30.47,10.0,NE,11.5,-,N/A,,Clear,40,2012-10-25 23:16:00
3:36 PM,39.2,21.2,49,30.47,10.0,NE,12.7,-,N/A,,Clear,40,2012-10-25 23:36:00
3:56 PM,39.2,21.2,49,30.47,9.0,NE,10.4,-,N/A,,Clear,50,2012-10-25 23:56:00
4:16 PM,39.2,21.2,49,30.47,10.0,NE,10.4,-,N/A,,Clear,50,2012-10-26 00:16:00
4:36 PM,39.2,19.4,45,30.46,10.0,NE,10.4,-,N/A,,Clear,50,2012-10-26 00:36:00
4:56 PM,39.2,19.4,45,30.45,10.0,ENE,8.1,-,N/A,,Clear,70,2012-10-26 00:56:00
5:16 PM,37.4,19.4,48,30.45,10.0,East,11.5,-,N/A,,Clear,80,2012-10-26 01:16:00
5:36 PM,37.4,21.2,52,30.45,10.0,East,9.2,-,N/A,,Clear,80,2012-10-26 01:36:00
5:56 PM,37.4,21.2,52,30.45,10.0,East,10.4,-,N/A,,Clear,80,2012-10-26 01:56:00
6:16 PM,35.6,21.2,56,30.46,10.0,ENE,8.1,-,N/A,,Clear,70,2012-10-26 02:16:00
6:36 PM,35.6,21.2,56,30.46,10.0,ENE,5.8,-,N/A,,Clear,70,2012-10-26 02:36:00
6:56 PM,35.6,17.6,48,30.47,10.0,Calm,Calm,-,N/A,,Clear,0,2012-10-26 02:56:00
7:16 PM,32.0,15.8,51,30.47,10.0,North,6.9,-,N/A,,Clear,10,2012-10-26 03:16:00
7:56 PM,28.4,15.8,59,30.47,10.0,NNW,6.9,-,N/A,,Clear,330,2012-10-26 03:56:00
8:16 PM,28.4,15.8,59,30.47,10.0,NNE,8.1,-,N/A,,Clear,20,2012-10-26 04:16:00
8:36 PM,26.6,15.8,64,30.48,10.0,NNE,9.2,-,N/A,,Clear,20,2012-10-26 04:36:00
8:56 PM,24.8,15.8,69,30.48,10.0,North,8.1,-,N/A,,Clear,10,2012-10-26 04:56:00
9:16 PM,26.6,15.8,64,30.48,10.0,North,10.4,-,N/A,,Clear,10,2012-10-26 05:16:00
9:36 PM,24.8,14.0,64,30.48,10.0,North,10.4,-,N/A,,Clear,360,2012-10-26 05:36:00
9:56 PM,26.6,15.8,64,30.47,10.0,North,9.2,-,N/A,,Clear,350,2012-10-26 05:56:00
10:16 PM,26.6,14.0,59,30.47,10.0,North,10.4,-,N/A,,Clear,10,2012-10-26 06:16:00
10:36 PM,26.6,14.0,59,30.48,10.0,NNE,10.4,-,N/A,,Clear,20,2012-10-26 06:36:00
10:56 PM,24.8,14.0,64,30.48,10.0,North,9.2,-,N/A,,Clear,360,2012-10-26 06:56:00
11:16 PM,24.8,14.0,64,30.48,10.0,North,10.4,-,N/A,,Clear,360,2012-10-26 07:16:00
11:36 PM,24.8,14.0,64,30.48,10.0,North,11.5,-,N/A,,Clear,10,2012-10-26 07:36:00
11:56 PM,26.6,14.0,59,30.48,10.0,NNE,9.2,-,N/A,,Clear,20,2012-10-26 07:56:00